Torna al catalogo

ANGOSAT 2

AttivoComunicazioniGEO
NORAD 54033·PAYLOAD·🇦🇴 Angola

Lanciato Oct 12, 2022 da Baikonur Cosmodrome

Loading…

TLE

AggiornatoSource: Space-Track

Epoca: Sep 14, 2026, 13:54 UTC

1 54033U 22131A   26257.57969436  .00000000  00000-0  00000-0 0  9995
2 54033   0.0210 166.6049 0000623  99.0511 319.5927  1.00272037 14371

Traccia ANGOSAT 2 in tempo reale con AllMySat

Download on the App Store